Location: ?????
(55.6500°N, 37.2500°E)
Time: 14:42:40
(UTC+00:00)

Cosmos 1624 Rocket - Pass Details

Date: 19 May 2025
Orbit: 753 x 779 km, 74.0° (Epoch: 20 June)

Event Time Altitude Azimuth Distance (km) Brightness Sun altitude
Rises 21:02:55 0° 332° (NNW) 3,223 8.6 -14.2°
Reaches altitude 10° 21:05:18 10° 335° (NNW) 2,296 7.6 -14.2°
Maximum altitude 21:10:31 71° 59° (ENE) 808 4.2 -14.3°
Enters shadow 21:14:44 16° 142° (SE) 1,926 5.6 -14.3°
